TimeCDT,TemperatureF,Dew PointF,Humidity,Sea Level PressureIn,VisibilityMPH,Wind Direction,Wind SpeedMPH,Gust SpeedMPH,PrecipitationIn,Events,Conditions,WindDirDegrees,DateUTC
12:15 AM,49.3,43.0,79,29.86,10.0,Calm,Calm,-,N/A,,Clear,0,2013-05-16 05:15:00
12:35 AM,50.0,42.8,76,29.86,10.0,Calm,Calm,-,N/A,,Clear,0,2013-05-16 05:35:00
12:55 AM,50.2,42.4,75,29.86,10.0,Calm,Calm,-,N/A,,Clear,0,2013-05-16 05:55:00
1:15 AM,46.8,41.7,83,29.85,10.0,Calm,Calm,-,N/A,,Clear,0,2013-05-16 06:15:00
1:35 AM,45.5,41.5,86,29.85,10.0,Calm,Calm,-,N/A,,Clear,0,2013-05-16 06:35:00
1:55 AM,47.3,42.3,83,29.86,10.0,Calm,Calm,-,N/A,,Clear,0,2013-05-16 06:55:00
2:15 AM,45.1,41.4,87,29.86,10.0,Calm,Calm,-,N/A,,Clear,0,2013-05-16 07:15:00
2:35 AM,44.6,42.1,91,29.86,10.0,Calm,Calm,-,N/A,,Scattered Clouds,0,2013-05-16 07:35:00
2:55 AM,44.6,41.2,88,29.86,10.0,Calm,Calm,-,N/A,,Clear,0,2013-05-16 07:55:00
3:15 AM,44.1,41.5,91,29.86,10.0,Calm,Calm,-,N/A,,Clear,0,2013-05-16 08:15:00
3:35 AM,43.0,40.6,91,29.87,10.0,Calm,Calm,-,N/A,,Scattered Clouds,0,2013-05-16 08:35:00
3:55 AM,43.9,41.2,90,29.87,10.0,Calm,Calm,-,N/A,,Scattered Clouds,0,2013-05-16 08:55:00
4:15 AM,43.9,41.2,90,29.88,10.0,Calm,Calm,-,N/A,,Scattered Clouds,0,2013-05-16 09:15:00
4:35 AM,42.8,39.9,90,29.88,10.0,Calm,Calm,-,N/A,,Scattered Clouds,0,2013-05-16 09:35:00
4:55 AM,41.0,39.2,93,29.88,10.0,Calm,Calm,-,N/A,,Mostly Cloudy,0,2013-05-16 09:55:00
5:15 AM,43.7,40.3,88,29.89,10.0,Calm,Calm,-,N/A,,Mostly Cloudy,0,2013-05-16 10:15:00
5:35 AM,43.5,40.5,89,29.90,10.0,Calm,Calm,-,N/A,,Scattered Clouds,0,2013-05-16 10:35:00
5:55 AM,43.3,40.3,89,29.90,10.0,Calm,Calm,-,N/A,,Clear,0,2013-05-16 10:55:00
6:15 AM,44.4,41.0,88,29.91,10.0,Calm,Calm,-,N/A,,Scattered Clouds,0,2013-05-16 11:15:00
6:35 AM,43.7,41.0,90,29.91,10.0,Calm,Calm,-,N/A,,Scattered Clouds,0,2013-05-16 11:35:00
6:55 AM,44.1,41.5,91,29.92,10.0,Calm,Calm,-,N/A,,Clear,0,2013-05-16 11:55:00
7:15 AM,48.4,44.1,85,29.92,10.0,Calm,Calm,-,N/A,,Scattered Clouds,0,2013-05-16 12:15:00
7:35 AM,51.6,44.4,76,29.93,10.0,Calm,Calm,-,N/A,,Clear,0,2013-05-16 12:35:00
7:55 AM,53.8,47.1,78,29.94,10.0,Calm,Calm,-,N/A,,Mostly Cloudy,0,2013-05-16 12:55:00
8:15 AM,55.8,43.9,64,29.94,10.0,NNW,4.6,-,N/A,,Overcast,340,2013-05-16 13:15:00
8:35 AM,59.2,43.2,55,29.95,10.0,North,4.6,-,N/A,,Scattered Clouds,350,2013-05-16 13:35:00
8:55 AM,61.0,43.3,52,29.95,10.0,NNE,6.9,-,N/A,,Clear,20,2013-05-16 13:55:00
9:15 AM,62.2,43.9,51,29.95,10.0,North,5.8,-,N/A,,Clear,350,2013-05-16 14:15:00
9:35 AM,64.2,45.5,51,29.95,10.0,North,3.5,-,N/A,,Scattered Clouds,10,2013-05-16 14:35:00
9:55 AM,66.0,43.5,44,29.95,10.0,NNE,5.8,-,N/A,,Clear,20,2013-05-16 14:55:00
10:15 AM,66.6,42.8,42,29.95,10.0,North,5.8,-,N/A,,Clear,10,2013-05-16 15:15:00
10:35 AM,67.8,39.9,36,29.96,10.0,NNW,3.5,-,N/A,,Clear,340,2013-05-16 15:35:00
10:55 AM,68.9,40.3,35,29.96,10.0,North,3.5,-,N/A,,Clear,10,2013-05-16 15:55:00
11:15 AM,69.3,41.0,36,29.96,10.0,ENE,4.6,-,N/A,,Clear,60,2013-05-16 16:15:00
11:35 AM,71.1,37.8,30,29.96,10.0,North,8.1,16.1,N/A,,Clear,10,2013-05-16 16:35:00
11:55 AM,71.4,38.8,31,29.95,10.0,North,9.2,16.1,N/A,,Clear,350,2013-05-16 16:55:00
12:15 PM,71.6,39.9,32,29.95,10.0,NE,8.1,-,N/A,,Clear,50,2013-05-16 17:15:00
12:35 PM,72.1,38.7,30,29.95,10.0,NE,5.8,9.2,N/A,,Clear,50,2013-05-16 17:35:00
12:55 PM,72.3,38.5,29,29.95,10.0,North,8.1,-,N/A,,Clear,10,2013-05-16 17:55:00
1:15 PM,72.3,37.9,29,29.94,10.0,NE,5.8,-,N/A,,Clear,50,2013-05-16 18:15:00
1:35 PM,72.1,37.8,29,29.94,10.0,North,10.4,-,N/A,,Clear,360,2013-05-16 18:35:00
2:15 PM,73.2,35.4,25,29.94,10.0,NW,5.8,-,N/A,,Clear,320,2013-05-16 19:15:00
2:35 PM,73.4,36.1,26,29.94,10.0,NNE,5.8,-,N/A,,Clear,30,2013-05-16 19:35:00
2:55 PM,73.4,35.2,25,29.94,10.0,East,3.5,-,N/A,,Clear,90,2013-05-16 19:55:00
3:15 PM,73.6,34.7,24,29.94,10.0,North,4.6,-,N/A,,Clear,10,2013-05-16 20:15:00
3:35 PM,73.2,34.7,24,29.93,10.0,East,4.6,-,N/A,,Clear,80,2013-05-16 20:35:00
3:55 PM,74.1,36.1,25,29.93,10.0,North,8.1,-,N/A,,Scattered Clouds,10,2013-05-16 20:55:00
4:15 PM,74.5,37.0,26,29.93,10.0,NNE,10.4,-,N/A,,Clear,20,2013-05-16 21:15:00
4:35 PM,74.1,35.1,24,29.93,10.0,East,3.5,-,N/A,,Clear,90,2013-05-16 21:35:00
5:15 PM,73.8,35.6,25,29.93,10.0,East,5.8,-,N/A,,Clear,80,2013-05-16 22:15:00
5:35 PM,73.4,34.3,24,29.93,10.0,Calm,Calm,-,N/A,,Clear,0,2013-05-16 22:35:00
5:55 PM,72.0,34.5,25,29.94,10.0,NNE,3.5,-,N/A,,Scattered Clouds,20,2013-05-16 22:55:00
6:15 PM,70.7,40.1,33,29.94,10.0,North,5.8,-,N/A,,Mostly Cloudy,10,2013-05-16 23:15:00
6:35 PM,71.8,38.3,30,29.95,10.0,NNE,10.4,-,N/A,,Mostly Cloudy,20,2013-05-16 23:35:00
6:55 PM,70.9,40.3,33,29.95,10.0,NE,8.1,-,N/A,,Scattered Clouds,40,2013-05-16 23:55:00
7:15 PM,66.4,44.6,45,29.97,10.0,SE,13.8,17.3,N/A,,Mostly Cloudy,130,2013-05-17 00:15:00
7:35 PM,64.6,43.7,47,29.98,10.0,SE,11.5,-,N/A,,Scattered Clouds,130,2013-05-17 00:35:00
7:55 PM,62.4,44.6,52,29.99,10.0,ESE,13.8,-,N/A,,Clear,110,2013-05-17 00:55:00
8:15 PM,61.3,44.2,53,30.00,10.0,SE,11.5,-,N/A,,Scattered Clouds,130,2013-05-17 01:15:00
8:35 PM,59.5,42.4,53,30.02,2.5,SE,11.5,-,N/A,,Haze,130,2013-05-17 01:35:00
8:55 PM,57.7,42.1,56,30.04,10.0,ESE,8.1,-,N/A,,Scattered Clouds,120,2013-05-17 01:55:00
9:15 PM,56.5,42.1,59,30.05,10.0,ESE,10.4,-,N/A,,Mostly Cloudy,110,2013-05-17 02:15:00
9:35 PM,55.4,40.1,56,30.07,10.0,ESE,6.9,-,N/A,,Mostly Cloudy,120,2013-05-17 02:35:00
9:55 PM,54.0,39.6,58,30.07,10.0,ESE,8.1,-,N/A,,Scattered Clouds,120,2013-05-17 02:55:00
10:15 PM,53.1,39.4,60,30.07,10.0,ESE,6.9,-,N/A,,Scattered Clouds,120,2013-05-17 03:15:00
10:35 PM,52.0,38.8,61,30.07,10.0,ESE,6.9,-,N/A,,Clear,110,2013-05-17 03:35:00
10:55 PM,51.8,38.5,60,30.07,10.0,ESE,5.8,-,N/A,,Clear,110,2013-05-17 03:55:00
11:15 PM,51.3,37.9,60,30.07,10.0,East,6.9,-,N/A,,Clear,100,2013-05-17 04:15:00
11:35 PM,50.9,37.8,61,30.07,10.0,ESE,5.8,-,N/A,,Clear,120,2013-05-17 04:35:00
11:55 PM,50.7,37.8,61,30.07,10.0,ESE,6.9,-,N/A,,Clear,110,2013-05-17 04:55:00